Regional Weather Roundup
Issued by NWS

Home | Current Version | Previous Version | Text Only | Print | Product List | Glossary On
Versions: 1 2 3 4 5 6 7 8 9 10 11 12 13 14 15 16 17 18 19 20 21 22 23 24 25 26 27 28 29 30 31 32 33 34 35 36 37 38 39 40 41 42 43 44 45 46 47 48 49 50
000
ASUS44 KOUN 231610
RWROK

WEATHER ROUNDUP FOR OKLAHOMA
NATIONAL WEATHER SERVICE NORMAN OK
1000 AM CST THU FEB 23 2017

NOTE: "FAIR" INDICATES FEW OR NO CLOUDS BELOW 12,000 FEET WITH NO
      SIGNIFICANT WEATHER AND/OR OBSTRUCTIONS TO VISIBILITY.

OKZ001>007-009>012-014-015-017-231700-
NORTHWEST OKLAHOMA AND THE PANHANDLE

CITY           SKY/WX    TMP DP  RH WIND       PRES   REMARKS
GAGE           MOSUNNY   72  33  24 S8        29.51F
GUYMON         SUNNY     62  34  35 S18G24    29.48F
$$

OKZ016-021>023-033>039-044-045-231700-
SOUTHWEST OKLAHOMA

CITY           SKY/WX    TMP DP  RH WIND       PRES   REMARKS
LAWTON/REGL    SUNNY     64  46  52 SW6       29.56F
LAWTON/FT SILL SUNNY     64  48  56 SW10      29.54F
FREDERICK      SUNNY     63  45  51 SW9       29.53F
CLINTON        SUNNY     65  42  43 W5        29.54F
HOBART         SUNNY     62  47  57 SW6       29.56F
ALTUS AFB      SUNNY     62  42  48 CALM      29.55F
$$

OKZ018>020-024>031-231700-
CENTRAL OKLAHOMA

CITY           SKY/WX    TMP DP  RH WIND       PRES   REMARKS
OKLAHOMA CITY  MOSUNNY   65  45  48 S12       29.54F
OKC/WILEY POST SUNNY     66  46  48 SW12      29.53F
OKC/TINKER AFB SUNNY     66  45  46 S14       29.53F
STILLWATER     MOSUNNY   65  46  50 S9        29.51F
GUTHRIE        MOSUNNY   67  46  47 S15       29.52F
$$

OKZ008-013-054>072-231700-
NORTHEAST OKLAHOMA

CITY           SKY/WX    TMP DP  RH WIND       PRES   REMARKS
TULSA          CLOUDY    67  52  58 S17G24    29.54F
TULSA/JONES    MOSUNNY   67  50  54 S13       29.55F
PONCA CITY     SUNNY     62  47  57 S8        29.50F
BARTLESVILLE   MOSUNNY   63  52  67 S10       29.54F
MUSKOGEE       MOSUNNY   67  54  63 S16G25    29.58F
$$

OKZ032-040>043-046>053-073>077-231700-
SOUTH CENTRAL/SOUTHEAST OKLAHOMA

CITY           SKY/WX    TMP DP  RH WIND       PRES   REMARKS
ARDMORE/DWNTWN SUNNY     64  46  52 S6        29.61F
MCALESTER      SUNNY     71  50  47 S12G22    29.60F
$$




USA.gov is the U.S. government's official web portal to all federal, state and local government web resources and services.